DW4542 Weather Reports


Display with metric or nautical units.
time (UTC)temp
F
wind
direction
speed
MPH
gust
MPH
rain 1hr
in
rain 24hr
in
rain mn
in
humidity
%
barometer
mb
20181216003014 53 315 0.0 0.0 0.00 0.05 0.02 90 1018.1
20181216001628 53 315 0.0 0.0 0.00 0.05 0.02 90 1018.0
20181216000026 53 315 0.0 0.0 0.00 0.05 0.02 87 1018.0
20181215233053 54 315 0.0 0.0 0.00 0.07 0.02 87 1017.8
20181215231520 54 315 0.0 0.0 0.00 0.07 0.02 87 1017.5
20181215230142 54 315 0.0 0.0 0.00 0.07 0.02 85 1017.3
20181215224556 54 315 0.0 0.0 0.00 0.27 0.02 84 1017.2
20181215223215 55 315 0.0 0.0 0.00 0.27 0.02 83 1017.0
20181215221555 55 315 0.0 0.0 0.00 0.27 0.02 82 1016.8
20181215220008 55 316 0.0 0.0 0.00 0.27 0.02 82 1016.8
20181215214651 55 316 0.0 0.0 0.00 0.33 0.02 82 1016.8
20181215213023 55 315 0.0 3.0 0.00 0.33 0.02 81 1016.9
20181215211713 56 245 0.0 2.0 0.00 0.33 0.02 80 1016.9
20181215210053 56 267 0.0 2.0 0.00 0.33 0.02 80 1016.6
20181215203047 56 257 0.0 2.0 0.00 0.33 0.02 79 1016.1
20181215201537 56 309 1.0 3.0 0.00 0.33 0.02 79 1016.1
20181215200214 56 293 1.0 4.0 0.00 0.33 0.02 79 1016.1
20181215194605 56 271 1.0 7.0 0.00 0.33 0.02 79 1016.2
20181215191542 56 255 0.0 3.0 0.00 0.33 0.02 76 1015.8
20181215184612 57 281 0.0 2.0 0.00 0.38 0.02 75 1015.9
20181215183044 57 294 0.0 3.0 0.00 0.38 0.02 74 1015.7
20181215181703 57 235 1.0 8.0 0.00 0.38 0.02 75 1015.8
20181215180029 56 231 0.0 2.0 0.00 0.38 0.02 78 1016.0
20181215174632 57 309 0.0 5.0 0.00 0.51 0.02 78 1016.1
20181215173118 57 260 0.0 2.0 0.00 0.51 0.02 79 1016.2
20181215171539 57 283 0.0 2.0 0.00 0.51 0.02 78 1016.0
20181215170125 57 327 0.0 2.0 0.00 0.51 0.02 80 1016.0
20181215164553 57 260 0.0 4.0 0.00 0.51 0.02 78 1016.1
20181215161633 56 283 0.0 4.0 0.00 0.51 0.02 79 1016.4
20181215160009 57 302 1.0 3.0 0.00 0.51 0.02 77 1016.5
20181215154609 56 233 1.0 4.0 0.00 0.51 0.02 81 1016.4
20181215153106 56 53 0.0 4.0 0.00 0.51 0.02 81 1016.4
20181215151656 56 319 0.0 5.0 0.00 0.51 0.02 83 1016.4
20181215150021 56 302 0.0 1.0 0.00 0.51 0.02 83 1016.3
20181215144736 55 86 0.0 0.0 0.00 0.51 0.02 86 1016.1
20181215143113 54 147 0.0 1.0 0.00 0.51 0.02 90 1016.2
20181215140106 50 154 0.0 0.0 0.00 0.51 0.02 98 1016.0
20181215134524 50 154 0.0 0.0 0.00 0.51 0.02 98 1015.9
20181215133118 49 155 0.0 0.0 0.00 0.51 0.02 98 1015.8
20181215131541 48 154 0.0 0.0 0.00 0.51 0.02 98 1015.6
20181215124658 48 155 0.0 0.0 0.00 0.52 0.02 98 1015.4
20181215123100 48 154 0.0 0.0 0.00 0.52 0.02 97 1015.4
20181215121632 49 154 0.0 0.0 0.00 0.52 0.02 97 1015.3
20181215120146 49 155 0.0 0.0 0.00 0.52 0.02 97 1015.1
20181215113101 50 155 0.0 0.0 0.00 0.54 0.02 97 1014.7
20181215111550 49 155 0.0 0.0 0.00 0.54 0.02 97 1014.7
20181215104637 50 155 0.0 0.0 0.00 0.57 0.02 96 1014.6
20181215103017 50 224 0.0 0.0 0.00 0.57 0.02 95 1014.3
20181215101722 51 224 0.0 0.0 0.00 0.57 0.02 93 1014.3
20181215100031 52 236 0.0 0.0 0.00 0.57 0.02 95 1014.0
20181215093216 53 145 0.0 0.0 0.00 0.63 0.02 98 1014.0
20181215091509 53 144 0.0 0.0 0.00 0.63 0.02 97 1013.9
20181215090229 54 145 0.0 0.0 0.00 0.63 0.02 97 1013.9
20181215084533 54 144 0.0 0.0 0.00 0.69 0.02 97 1013.7
20181215083242 54 144 0.0 0.0 0.00 0.69 0.02 97 1013.8
20181215081628 54 144 0.0 0.0 0.01 0.69 0.02 97 1013.7
20181215080027 55 144 0.0 0.0 0.02 0.69 0.02 97 1013.8
20181215074609 55 144 0.0 0.0 0.02 0.95 0.02 96 1014.0
20181215073037 55 162 0.0 0.0 0.02 0.95 0.02 96 1014.0
20181215071632 55 162 0.0 0.0 0.01 0.94 0.01 95 1013.9
20181215070102 56 212 0.0 0.0 0.00 0.93 0.00 94 1013.5
20181215063131 56 269 0.0 0.0 0.00 1.07 0.00 93 1013.0
20181215061520 56 269 0.0 0.0 0.00 1.07 0.00 92 1013.2
20181215060142 57 269 0.0 0.0 0.00 1.07 0.00 90 1013.1
20181215054543 57 269 0.0 0.0 0.00 1.17 1.07 87 1013.3
20181215053003 57 269 0.0 0.0 0.00 1.17 1.07 87 1013.3
20181215051647 57 269 0.0 0.0 0.00 1.17 1.07 90 1013.8
20181215050043 57 269 0.0 0.0 0.00 1.17 1.07 92 1013.7
20181215043106 58 269 0.0 1.0 0.00 1.21 1.07 91 1013.7
20181215041510 59 269 0.0 1.0 0.00 1.21 1.07 87 1014.1
20181215040058 59 269 0.0 1.0 0.00 1.21 1.07 88 1013.7
20181215034526 58 269 0.0 1.0 0.00 1.21 1.07 91 1013.7
20181215033138 58 269 0.0 0.0 0.00 1.21 1.07 92 1013.7
20181215031533 59 269 0.0 1.0 0.00 1.21 1.07 91 1013.6
20181215024613 61 252 0.0 2.0 0.00 1.21 1.07 85 1013.4
20181215023018 62 214 3.0 8.0 0.01 1.21 1.07 82 1013.2
20181215021734 64 295 1.0 3.0 0.02 1.21 1.07 99 1013.0
20181215020026 64 288 0.0 3.0 0.02 1.21 1.07 99 1011.7
20181215013058 64 74 1.0 3.0 0.01 1.20 1.06 99 1011.8
20181215011523 64 89 0.0 0.0 0.00 1.19 1.05 99 1011.5
20181215010156 64 143 0.0 2.0 0.01 1.19 1.05 99 1011.4
20181215004537 64 103 1.0 2.0 0.01 1.19 1.05 99 1011.7